This is the latest recevied weather packets stored in our database for station/object AG7BI. If no packets are shown the sender has not sent any weather packets the latest 10 day(s).
| Time | Temp. | Humidity | Pressure | Rain* | Wind** | Luminosity | Snow |
|---|---|---|---|---|---|---|---|
| 1777941652 | 21.67° C | 48% | 1009.7 hPa | 0 mm | - | - | - |
| 1777941352 | 21.67° C | 49% | 1009.8 hPa | 0 mm | - | - | - |
| 1777941052 | 21.67° C | 51% | 1009.8 hPa | 0 mm | - | - | - |
| 1777940752 | 21.11° C | 53% | 1009.6 hPa | 0 mm | - | - | - |
| 1777940452 | 21.67° C | 52% | 1009.6 hPa | 0 mm | - | - | - |
| 1777940152 | 21.11° C | 53% | 1009.9 hPa | 0 mm | - | - | - |
| 1777939852 | 21.11° C | 53% | 1009.6 hPa | 0 mm | - | - | - |
| 1777939552 | 21.67° C | 56% | 1009.7 hPa | 0 mm | - | - | - |
| 1777939252 | 21.67° C | 54% | 1009.6 hPa | 0 mm | - | - | - |
| 1777938952 | 21.67° C | 56% | 1009.7 hPa | 0 mm | - | - | - |
| 1777938652 | 21.67° C | 55% | 1009.6 hPa | 0 mm | - | - | - |
| 1777938352 | 22.22° C | 54% | 1009.7 hPa | 0 mm | - | - | - |
| 1777938052 | 22.22° C | 56% | 1009.6 hPa | 0 mm | - | - | - |
| 1777937752 | 22.22° C | 56% | 1009.7 hPa | 0 mm | - | - | - |
| 1777937452 | 22.78° C | 54% | 1009.7 hPa | 0 mm | - | - | - |
| 1777937152 | 22.22° C | 51% | 1009.8 hPa | 0 mm | - | - | - |
| 1777936852 | 22.78° C | 52% | 1009.6 hPa | 0 mm | - | - | - |
| 1777936552 | 22.78° C | 52% | 1009.7 hPa | 0 mm | - | - | - |
| 1777936252 | 22.78° C | 52% | 1009.6 hPa | 0 mm | - | - | - |
| 1777935952 | 22.78° C | 52% | 1009.6 hPa | 0 mm | - | - | - |
| 1777935652 | 22.78° C | 53% | 1009.7 hPa | 0 mm | - | - | - |
| 1777935352 | 22.78° C | 48% | 1009.6 hPa | 0 mm | - | - | - |
| 1777935052 | 22.78° C | 49% | 1009.6 hPa | 0 mm | - | - | - |
| 1777934752 | 22.78° C | 49% | 1009.8 hPa | 0 mm | - | - | - |
| 1777934452 | 23.33° C | 49% | 1009.9 hPa | 0 mm | - | - | - |
* Rain latest hour (hover to see other rain measurements)
** Current wind speed in m/s (hover to see current wind gust speed)